User: anonymous   Login
Location: Wildlife_Club
(35.6000°N, 81.4330°W)
Time: 19:58:43
(UTC-04:00)
Language:

Transit 2A Rocket - Orbit

View from above orbital plane
View from above orbital plane
View from above satellite
View from above satellite

Ground track
Ground track

The orbit data is extracted from the following two-line orbital elements,

1    47U 60007C   19177.52328990 -.00000049  00000-0  14305-4 0  9998
2    47  66.6662  29.3317 0231302 206.1509 152.7768 14.42039159 83650
Epoch (UTC): 26 June 2019 12:33:32
Eccentricity: 0.0231302
inclination: 66.6662°
perigee height: 587 km
apogee height: 916 km
right ascension of ascending node: 29.3317°
argument of perigee: 206.1509°
revolutions per day: 14.42039159
mean anomaly at epoch: 152.7768°
orbit number at epoch: 8365

The dashed part of the orbit path shows where the satellite is in the earth's shadow,  

DLR